Location: *
(55.4216°N, 38.8777°E)
Time: 11:21:58
(UTC+00:00)

Daily predictions for brighter satellites

Satellite Brightness Start Highest point End
(mag) Time Altitude Azimuth Time Altitude Azimuth Time Altitude Azimuth
Helios 1B rocket 3.7 16:15:30 10° S 16:19:11 42° W 16:22:53 10° NNW
CZ-4B R/B 3.0 16:17:42 10° SSE 16:21:33 59° ENE 16:25:37 10° N
NOSS 2-1 (D) 4.4 16:19:19 10° WNW 16:22:45 44° SW 16:27:17 10° SSE
Cosmos 1328 Rocket 3.5 16:20:53 10° N 16:25:13 81° E 16:29:30 10° SSE
BREEZE-M R/B 4.0 16:22:49 10° WSW 16:26:43 50° S 16:37:51 10° ESE
Cosmos 1725 Rocket 4.4 16:21:54 10° SSW 16:28:04 71° WNW 16:34:16 10° N
Cosmos 1356 Rocket 3.5 16:25:05 10° N 16:29:15 59° ENE 16:33:22 10° SSE
Lacrosse 4 Rocket 3.5 16:26:49 10° NW 16:30:34 28° WSW 16:34:16 10° S
SeaSat 1 2.7 16:27:18 10° NNE 16:32:14 77° NW 16:37:09 10° SW
Cosmos 1674 2.6 16:29:01 10° NNW 16:32:22 74° W 16:35:40 10° S
Iridium 4 Rocket 3.0 16:28:37 10° N 16:32:50 84° W 16:36:59 10° S
Cosmos 2333 Rocket 2.9 16:28:06 10° SW 16:33:49 61° NW 16:39:32 10° NNE
SL-16 R/B 3.8 16:29:41 10° WSW 16:34:56 38° NW 16:40:15 10° NNE
In-Cosmos 22 4.4 16:29:34 10° N 16:35:13 54° ENE 16:40:42 10° SSE
Cosmos 2369 Rocket 3.4 16:31:33 10° NNW 16:36:34 30° NNE 16:41:33 10° E
SJ-6B 3.0 16:34:26 10° S 16:38:02 68° WSW 16:41:38 10° NNW
CARTOSAT-1 3.6 16:34:57 10° SSE 16:39:09 63° ENE 16:43:23 10° N
Cosmos 1980 4.4 16:36:27 10° SSE 16:41:19 30° ESE 16:46:13 10° NE
Meteor 1-4 Rocket 2.1 16:39:36 10° NNW 16:42:16 65° WSW 16:44:54 10° S
ATLAS CENTAUR R/B 2.8 16:41:02 10° SE 16:42:53 14° ESE 16:44:46 10° E
NOSS 8 (A) 4.5 16:39:34 10° WSW 16:43:07 73° NW 16:46:05 10° NE
ARGOS Delta rocket 3.9 16:38:31 10° SSE 16:43:32 90° WSW 16:48:17 10° NNW
Nadezhda 4 Rocket 4.2 16:37:43 10° N 16:43:54 57° ENE 16:50:06 10° SSE
Cosmos 1340 3.3 16:41:22 10° SSW 16:44:34 51° WNW 16:47:47 10° N
Cosmos 1943 Rocket 2.1 16:39:10 10° NNW 16:44:43 84° ENE 16:50:16 10° SE
NOSS 0 Rocket 4.3 16:39:24 10° S 16:45:13 42° ESE 16:51:03 10° NE
Cosmos 2344 4.3 16:39:14 10° W 16:46:18 50° N 16:54:29 10° ENE
ACS3 Solar Sail 2.1 16:40:52 10° SE 16:47:04 53° ENE 16:53:16 10° N
Cosmos 841 Rocket 4.2 16:42:53 10° SW 16:48:00 60° WNW 16:53:08 10° NNE
GRACE-FO 1 4.5 16:46:20 10° SSE 16:49:48 61° E 16:53:18 10° N
OPS 6432 4.4 16:46:32 10° NW 16:49:52 60° NNE 16:52:17 15° ESE
GRACE-FO 2 4.5 16:46:44 10° SSE 16:50:13 62° E 16:53:43 10° N
Cosmos 2298 Rocket 4.3 16:45:29 10° NNW 16:50:41 52° NE 16:55:28 12° SE
Cosmos 2233 Rocket 4.4 16:44:48 10° SSW 16:50:56 70° WNW 16:57:08 10° N
Cosmos 2322 3.7 16:46:49 10° SSW 16:52:28 79° ESE 16:58:09 10° NE
Cosmos 2150 Rocket 4.3 16:47:25 10° NNW 16:52:31 52° NE 16:57:03 13° SE
CSL-04 Debris 4.2 16:47:04 10° SSE 16:52:33 77° ENE 16:58:02 10° NNW
Cosmos 1733 3.6 16:49:51 10° SSE 16:52:59 33° E 16:56:08 10° NNE
Genesis I 4.5 16:50:17 10° W 16:53:31 35° NNW 16:56:48 10° NE
Cosmos 1400 Rocket 4.3 16:51:01 10° NNW 16:54:36 38° W 16:58:07 10° SSW
ERS-1 Rocket 4.0 16:54:13 13° ESE 16:57:47 29° ENE 17:02:04 10° N
Sich 1 4.1 16:54:25 10° SE 16:57:57 25° E 17:01:30 10° NNE
USA 276 4.1 16:56:34 10° WSW 16:58:24 16° SSW 17:00:09 10° SSE
Cosmos 1513 Rocket 4.4 16:52:53 10° S 16:58:53 67° E 17:04:59 10° NNE
Terra 3.1 16:56:30 14° ESE 16:59:26 25° ENE 17:03:13 10° N
BlueWalker 3 4.5 16:57:50 10° WSW 16:59:38 13° SW 17:01:27 10° SSW
ATLAS 2AS CENTAUR R/B 3.6 16:57:57 10° W 17:04:52 48° NNW 17:11:31 10° ENE
Cosmos 1726 3.6 17:04:11 10° SW 17:06:43 30° WNW 17:09:15 10° N
Cosmos 1464 Rocket 4.1 17:00:32 10° S 17:06:44 61° E 17:13:02 10° NNE
USA 59 Rocket 1.9 17:03:46 10° WNW 17:06:57 24° SW 17:10:55 10° S
Ariane Rocket 4.3 17:04:05 14° E 17:07:02 24° NE 17:11:02 10° N
Cosmos 1125 Rocket 3.6 17:04:20 10° NNW 17:09:32 76° WSW 17:14:43 10° SSE
Cosmos 1975 4.2 17:08:59 18° E 17:09:33 18° E 17:12:17 10° NE
Cosmos 1315 Rocket 2.7 17:06:28 10° N 17:10:27 69° ENE 17:14:02 12° SSE
SL-16 R/B 3.5 17:11:47 17° ESE 17:12:30 17° E 17:16:06 10° ENE
BREEZE-M DEB (TANK) 3.4 17:11:31 10° SW 17:13:17 22° SSE 17:13:37 21° SSE
Cosmos 1656 Rocket 4.1 17:09:13 10° NNW 17:14:45 51° NE 17:18:38 19° ESE
Cosmos 1805 3.9 17:13:04 20° SE 17:14:48 29° E 17:18:01 10° NNE
COSMOS 2428 2.7 17:10:30 10° SSW 17:16:14 89° NW 17:22:01 10° NE
Cosmos 1842 4.5 17:12:55 10° NNW 17:16:19 39° W 17:19:43 10° SSW
Cosmos 1515 Rocket 3.9 17:13:20 10° NNW 17:17:40 68° W 17:21:59 10° S
Okean 3 Rocket 3.5 17:14:48 10° S 17:19:16 81° E 17:23:43 10° NNE
Cosmos 1707 3.8 17:17:01 10° NNW 17:20:24 41° W 17:23:45 10° SSW
Cosmos 1536 2.6 17:17:05 10° S 17:20:53 80° E 17:24:45 10° NNE
Cosmos 1818 3.9 17:17:28 10° WSW 17:22:57 72° NW 17:28:27 10° NE
Cosmos 2278 Rocket 3.3 17:18:30 10° NW 17:23:50 43° WSW 17:29:07 10° S
Okean O Rocket 1.6 17:20:26 10° SSE 17:24:52 85° WSW 17:29:20 10° NNW
Meteor 1-13 Rocket 4.5 17:19:33 10° NNW 17:25:29 78° W 17:31:15 10° S
USA 245 4.3 17:25:57 16° NE 17:25:57 16° NE 17:27:17 10° NNE
IRS-1C Rocket 4.5 17:23:03 20° SE 17:26:23 46° ENE 17:31:26 10° N
SL-14 R/B 3.2 17:24:29 10° N 17:28:14 59° ENE 17:30:18 25° SSE
Cosmos 2034 Rocket 4.0 17:22:52 10° S 17:28:56 61° E 17:35:01 10° NNE
Meteor 2-9 Rocket 4.1 17:25:28 10° S 17:30:44 61° E 17:36:09 10° NNE
NOSS 3-3 (C) 4.4 17:25:57 10° S 17:30:49 33° ESE 17:36:26 10° ENE
CZ-4B R/B 3.8 17:27:35 10° S 17:32:56 55° WSW 17:38:13 10° NNW
Meteor 1-23 Rocket 4.2 17:28:57 10° NNW 17:34:37 82° ENE 17:39:25 15° SSE
Okean 1-7 4.4 17:31:16 10° N 17:34:39 22° ENE 17:35:36 20° E
CZ-4 R/B 3.4 17:32:40 10° SSW 17:35:58 27° W 17:39:21 10° NW
MetOp-B 4.1 17:33:31 19° SSE 17:37:28 72° ENE 17:42:50 10° NNW
PSLV R/B 3.5 17:35:42 21° SSE 17:37:56 84° WSW 17:41:29 10° NNW
Helios 1A 4.0 17:34:23 10° N 17:38:18 46° WNW 17:42:11 10° SW
Cosmos 1500 Rocket 3.5 17:34:01 10° S 17:38:19 61° E 17:42:37 10° NNE
Meteor 2-10 4.2 17:32:53 10° S 17:38:30 83° ESE 17:44:17 10° NNE
Cosmos 2228 Rocket 3.6 17:34:14 10° N 17:38:38 44° ENE 17:40:30 29° ESE
USA 267 3.3 17:33:42 18° E 17:38:50 83° N 17:45:25 10° WNW
Resurs 01 Rocket 2.9 17:35:16 10° SSW 17:39:27 40° W 17:43:39 10° NNW
USA 306 2.4 17:38:07 10° WSW 17:41:25 57° SSE 17:42:29 38° ESE
SPOT 3 Rocket 4.2 17:39:43 25° ESE 17:41:58 38° ENE 17:46:41 10° N
Cosmos 2360 Rocket 4.2 17:38:32 10° W 17:43:25 29° NNW 17:48:17 10° NNE
NOSS 3-3 (A) 4.1 17:39:45 10° SSW 17:44:54 41° ESE 17:50:53 10° NE
Cosmos 1743 Rocket 3.6 17:42:19 21° SSE 17:44:59 54° E 17:49:15 10° NNE
SPOT 5 2.6 17:43:06 22° SSE 17:46:07 86° ENE 17:50:34 10° NNW
Kosmos-1783 4.5 17:44:45 10° WSW 17:45:29 18° W 17:45:29 18° W
Cosmos 2208 Rocket 4.0 17:43:03 10° S 17:48:13 59° ESE 17:53:30 10° NNE
Okean-O 2.6 17:45:38 21° SSE 17:48:33 84° WSW 17:53:00 10° NNW
USA 186 4.3 17:47:10 10° SW 17:49:43 21° W 17:52:18 10° NW
BREEZE-M DEB (TANK) 4.3 17:28:52 10° W 17:49:51 60° S 17:53:04 28° ESE
Aureole 3 Rocket 3.5 17:46:44 10° S 17:53:08 75° E 17:57:42 10° NNE
Cosmos 1408 Rocket 3.6 17:48:57 10° SSW 17:53:20 81° WNW 17:57:47 10° N
MOS 1 4.4 17:49:05 16° SSE 17:53:44 79° WSW 17:59:28 10° NNW
Cosmos 2237 Rocket 2.1 17:49:46 10° SSW 17:55:23 81° ESE 18:01:03 10° NE
Cosmos 2322 Rocket 4.5 17:51:32 10° W 17:56:08 24° NNW 18:00:44 10° NNE
ISS -2.0 17:56:11 10° SW 17:57:45 21° SSW 17:57:45 21° SSW
Cosmos 2219 Rocket 3.9 17:55:34 10° WSW 18:00:41 34° NW 18:05:50 10° NNE
Cosmos 2297 3.6 17:56:52 10° NNW 18:02:34 83° NE 18:05:10 34° SE
NOSS 3-4 (A) 3.7 17:59:14 10° NW 18:05:47 86° SW 18:09:46 31° SE
NOSS 3-4 (C) 3.7 17:59:20 10° NW 18:05:54 86° SW 18:09:52 31° SE
Meteor 1-11 Rocket 3.9 18:00:33 10° SSW 18:06:08 70° WNW 18:11:41 10° NNE
MOS 1 Rocket 3.6 18:06:29 26° S 18:09:27 81° WSW 18:14:49 10° NNW
Cosmos 1408 4.3 18:08:09 10° NNE 18:08:50 14° NNE 18:08:50 14° NNE
Spot 2 Rocket 3.4 18:10:51 39° SE 18:12:41 71° ENE 18:17:43 10° NNW
Cosmos 158 Rocket 3.8 18:09:27 10° SSW 18:14:18 82° WNW 18:19:14 10° NNE
Cosmos 1805 Rocket 3.8 18:15:48 14° SSW 18:19:27 68° WNW 18:23:48 10° N
ATLAS CENTAUR R/B 0.9 18:15:59 10° SW 18:19:35 80° SE 18:19:54 72° ENE
Cosmos 2369 Rocket 2.2 18:15:33 10° NW 18:21:19 90° SW 18:23:26 41° SSE
Aureole 3 3.7 18:19:27 10° N 18:23:07 48° ENE 18:23:09 48° ENE
Cosmos 1980 4.0 18:19:21 10° SW 18:25:02 67° NW 18:30:44 10° NNE
Cosmos 1943 Rocket 4.1 18:23:39 10° NW 18:27:50 22° WSW 18:32:01 10° SSW
Cosmos 1862 Rocket 3.5 18:24:05 10° NNW 18:28:32 86° WSW 18:29:28 56° S
Cosmos 1633 Rocket 3.3 18:29:12 49° ENE 18:29:12 49° ENE 18:33:08 10° NNE
Cosmos 192 4.2 18:23:59 10° NNW 18:28:55 79° ENE 18:29:56 56° SE
ACS3 Solar Sail 3.0 18:25:19 10° SSW 18:31:18 40° W 18:37:20 10° NNW
Meteor 1-16 4.5 18:29:34 33° S 18:32:06 78° ESE 18:37:35 10° NNE
Cosmos 1707 Rocket 3.7 18:28:28 10° NNW 18:32:55 71° W 18:34:02 48° SSW
Cosmos 1441 Rocket 3.4 18:33:59 58° NNE 18:33:59 58° NNE 18:36:55 10° NNE
DELTA 2 DEB (DPAF) 4.1 18:29:17 10° NNE 18:33:28 72° WNW 18:35:19 32° SSW
Sich 1 4.0 18:30:58 10° SSW 18:35:06 47° WNW 18:39:18 10° N
ERS-1 Rocket 3.3 18:34:09 33° SSW 18:36:15 60° WSW 18:41:15 10° NNW
Terra 2.0 18:35:11 42° S 18:36:39 66° WSW 18:41:22 10° NNW
Cosmos 2266 Rocket 4.1 18:32:33 10° N 18:38:47 63° ENE 18:40:33 46° SE
Cosmos 1703 Rocket 3.9 18:36:04 10° N 18:40:19 49° ENE 18:40:19 49° ENE
Cosmos 1666 Rocket 3.4 18:41:26 76° ESE 18:41:30 77° E 18:45:52 10° NNE
Cosmos 1980 Rocket 4.5 18:38:09 10° NNW 18:41:51 17° N 18:45:32 10° NE
Cosmos 1470 Rocket 4.3 18:44:01 40° ENE 18:44:01 40° ENE 18:47:25 10° NNE
Cosmos 1975 3.3 18:43:58 43° SW 18:44:54 55° WNW 18:48:47 10° N
Ariane Rocket 3.0 18:44:13 52° S 18:45:29 78° WSW 18:50:36 10° NNW
Cosmos 2056 Rocket 4.5 18:47:35 10° NNW 18:52:24 35° NE 18:53:18 32° ENE
Cosmos 839 Rocket 4.5 18:47:05 10° SW 18:55:09 75° NW 19:01:43 10° NE
SL-16 R/B 2.0 18:53:31 39° SSW 18:55:44 77° ESE 19:01:26 10° NE
Okean 3 4.0 18:52:10 10° NNW 18:56:12 49° W 18:56:38 47° WSW
Cosmos 1634 Rocket 4.3 18:51:55 18° SSW 18:56:45 68° WNW 19:03:07 10° N
ATLAS 2AS CENTAUR R/B 3.6 18:50:20 10° WNW 18:57:05 45° N 19:01:45 19° ENE
SL-08 ROCKET BODY 4.3 18:55:27 10° N 19:01:41 85° ENE 19:03:06 56° SSE
Okean O Rocket 4.3 18:59:26 10° WSW 19:01:50 14° W 19:04:13 10° NW
Cosmos 2344 4.0 18:54:29 10° WNW 19:02:01 64° NNE 19:07:19 28° E
Cosmos 2263 4.4 19:03:24 10° NW 19:09:02 60° WSW 19:09:59 52° SSW
Okean 2 4.0 19:05:37 10° NNW 19:09:15 50° W 19:09:15 50° W
Cosmos 773 Rocket 4.4 19:05:45 16° SW 19:09:54 64° WNW 19:15:12 10° NNE
Okean 1-7 3.4 19:08:01 10° NNW 19:12:07 60° W 19:12:07 60° W
Cosmos 1943 4.2 19:18:13 33° ENE 19:18:13 33° ENE 19:21:42 10° NE
Cosmos 2142 Rocket 4.5 19:17:54 45° SSW 19:19:55 77° WNW 19:26:07 10° N
NOSS 3-3 (C) 4.0 19:15:26 10° WSW 19:21:08 78° NW 19:28:03 10° NE
SPOT 3 Rocket 4.2 19:20:19 40° SW 19:21:18 45° W 19:26:15 10° NNW
Cosmos 1420 Rocket 4.2 19:16:25 10° NNW 19:21:34 59° ENE 19:21:36 59° ENE
USA 267 3.2 19:21:02 58° SSE 19:22:04 66° SSW 19:28:34 10° WNW
Cosmos 1655 Rocket 3.9 19:18:17 10° N 19:24:42 85° ENE 19:25:41 66° SSE
ASTEX 1 4.0 19:26:39 45° NE 19:26:39 45° NE 19:30:40 10° N
Cosmos 1697 Rocket 4.2 19:22:15 10° NNW 19:27:08 28° NNE 19:29:05 23° ENE
CZ-4C R/B 4.4 19:25:56 10° N 19:29:25 41° WNW 19:29:25 41° WNW
ARIANE 5 R/B 3.4 19:30:48 44° NNE 19:30:48 44° NNE 19:34:05 10° N
RESURS DK-1 3.9 19:27:01 10° NNW 19:30:08 29° NNE 19:30:08 29° NNE
Cosmos 724 4.1 19:32:41 53° SW 19:34:09 88° NW 19:40:01 10° NE
NOSS 3-3 (A) 4.2 19:29:44 10° WSW 19:35:28 68° NNW 19:42:24 10° NE
Cosmos 2237 Rocket 3.9 19:35:03 10° W 19:40:03 31° NW 19:45:04 10° NNE
Meteor 2-5 Rocket 3.7 19:35:50 10° NNW 19:41:51 78° ENE 19:42:00 77° E
Cosmos 1607 4.0 19:36:32 10° SW 19:43:01 80° NW 19:49:29 10° NE
Meteor 1-24 Rocket 3.7 19:37:04 10° NNW 19:43:07 80° ENE 19:43:14 79° E
MetOp-A 4.2 19:45:18 58° WNW 19:45:18 58° WNW 19:49:40 10° NNW
Cosmos 1371 Rocket 4.2 19:48:34 10° NNW 19:53:11 68° N 19:53:11 68° N
SL-24 R/B - RUBIN 2 4.2 19:47:46 10° NW 19:54:20 87° SW 19:54:25 86° S
ATLAS CENTAUR R/B 3.7 19:54:03 10° W 20:00:23 13° NE 20:00:51 10° NE
Meteor 1-15 Rocket 4.4 20:02:49 66° ENE 20:02:49 66° ENE 20:08:08 10° NNE
Cosmos 2242 Rocket 4.5 19:58:27 10° NNW 20:01:49 49° NNW 20:01:49 49° NNW
Cosmos 2369 Rocket 3.9 20:00:25 10° NW 20:04:38 21° WSW 20:05:11 21° WSW
Cosmos 1624 Rocket 4.2 20:00:08 10° NNW 20:04:44 67° NNW 20:04:44 67° NNW
Terra 4.4 20:13:52 11° W 20:15:10 12° W 20:16:51 10° WNW
Cosmos 1745 Rocket 4.2 20:13:16 10° N 20:19:28 60° ENE 20:19:28 60° ENE
EO 1 Delta rocket 4.5 20:17:57 10° N 20:21:46 55° NNW 20:21:46 55° NNW
H-2A R/B 4.0 20:24:30 34° N 20:24:30 34° N 20:27:03 10° N
Cosmos 1980 Rocket 3.5 20:22:32 10° NNW 20:27:36 33° NE 20:28:48 30° ENE
USA 215 3.9 20:21:20 10° ENE 20:25:24 40° E 20:25:24 40° E
Cosmos 1452 Rocket 4.1 20:25:23 10° NNW 20:29:56 52° NNE 20:29:56 52° NNE
ALOS 2 3.9 20:32:55 38° N 20:32:55 38° N 20:35:42 10° NNW
Meteor 2-10 Rocket 3.9 20:32:42 63° NNW 20:32:42 63° NNW 20:37:29 10° NNE
Cosmos 2056 Rocket 4.3 20:29:37 10° NNW 20:33:34 46° WNW 20:33:34 46° WNW
Cosmos 1386 Rocket 4.5 20:29:30 10° N 20:35:45 82° NE 20:35:45 82° NE
SL-16 R/B 3.7 20:35:17 10° W 20:40:24 33° NW 20:45:31 10° NNE
ATLAS 2AS CENTAUR R/B 2.6 20:41:50 10° NW 20:48:48 80° NE 20:49:08 77° ENE
Cosmos 1603 4.0 20:53:48 64° N 20:53:48 64° N 20:58:41 10° NNE
CZ-3B R/B 3.7 20:31:02 10° W 20:54:26 81° SSW 20:55:52 63° SE
Cosmos 1833 Rocket 4.4 21:01:41 23° ENE 21:01:41 23° ENE 21:04:28 10° NE
Cosmos 1656 4.4 20:54:06 10° NW 20:58:19 46° WNW 20:58:19 46° WNW
Cosmos 1943 3.8 20:59:58 49° WNW 21:00:23 50° NW 21:05:55 10° NNE
Cosmos 1553 Rocket 4.1 21:04:59 72° WNW 21:04:59 72° WNW 21:11:01 10° N
Cosmos 1709 Rocket 4.0 21:01:57 10° N 21:08:01 81° NNE 21:08:01 81° NNE
Cosmos 1697 Rocket 3.1 21:06:11 10° NNW 21:10:47 60° NNW 21:10:47 60° NNW
Cosmos 2344 4.0 21:08:46 10° NW 21:16:39 59° SW 21:17:16 58° SW
Cosmos 2074 Rocket 4.5 21:21:50 10° N 21:27:54 50° ENE 21:28:07 50° ENE
Cosmos 2322 Rocket 4.3 21:23:48 10° NNW 21:28:24 24° NNE 21:32:58 10° E
Cosmos 1680 Rocket 4.2 21:32:29 50° NNW 21:32:29 50° NNW 21:37:01 10° NNE
ATLAS CENTAUR R/B 3.7 21:35:08 20° NNW 21:35:46 21° N 21:38:53 10° NE
Cosmos 2082 Rocket 4.1 21:43:48 19° E 21:43:48 19° E 21:46:44 10° ENE
Cosmos 2369 4.0 21:39:25 10° NNW 21:44:46 62° NNE 21:44:46 62° NNE
Cosmos 2333 Rocket 4.2 21:47:09 10° NNW 21:51:58 26° NNE 21:56:45 10° E
SL-16 R/B 3.5 21:47:35 10° NNW 21:52:49 36° NE 21:55:59 21° E
SL-19 R/B 4.4 21:48:37 10° NNE 21:53:42 73° N 21:53:42 73° N
S3M 4.3 22:00:03 56° WNW 22:00:03 56° WNW 22:05:59 10° N
Resurs 1-4 Rocket 4.3 21:59:57 10° NE 22:02:52 15° E 22:03:43 14° E
CZ-2C R/B 3.5 22:04:50 40° ENE 22:05:12 40° ENE 22:10:01 10° N
USA 215 3.2 22:04:31 10° ENE 22:11:06 82° N 22:12:41 55° W
Cosmos 1375 Rocket 4.4 22:04:30 10° NW 22:11:08 85° NE 22:11:17 84° E
Cosmos 2184 Rocket 3.9 22:04:50 10° N 22:11:03 86° NE 22:11:03 86° NE
Cosmos 1980 Rocket 2.8 22:06:30 10° NW 22:10:31 48° NW 22:10:31 48° NW
SL-16 R/B 4.4 22:07:55 10° ESE 22:12:56 26° NE 22:17:59 10° N
CZ-4C R/B 3.7 22:19:33 24° E 22:19:33 24° E 22:22:53 10° ENE
Lacrosse 5 4.0 22:21:16 17° E 22:21:16 17° E 22:22:50 10° E
Cosmos 1048 Rocket 4.5 22:20:37 58° NNW 22:20:37 58° NNW 22:25:16 10° NNE
Nadezhda 1 Rocket 4.4 22:20:09 49° ESE 22:20:35 50° E 22:26:37 10° NNE
H-2A R/B 3.3 22:20:01 10° NNE 22:22:57 41° NNE 22:22:57 41° NNE
Okean 2 Rocket 4.3 22:36:39 37° ENE 22:36:39 37° ENE 22:39:48 10° NNE
Cosmos 1818 4.0 22:31:13 10° NW 22:36:41 60° NE 22:39:11 31° ESE
Nimbus 7 Rocket 4.3 22:31:49 10° NNE 22:37:44 81° ESE 22:37:45 81° ESE
ATLAS 2AS CENTAUR R/B 3.9 22:33:08 10° WNW 22:36:31 26° WNW 22:36:31 26° WNW
Okean 1 Rocket 4.5 22:40:17 32° ENE 22:40:17 32° ENE 22:43:33 10° NNE
Cosmos 1833 Rocket 2.8 22:43:21 70° NW 22:43:21 70° NW 22:48:52 10° NNE
ADEOS II 3.9 22:44:50 10° NE 22:48:50 22° E 22:50:27 19° ESE
ARIANE 6 FM1 Upper Stage 4.1 22:49:37 36° NNW 22:49:49 36° N 22:53:52 10° ENE
Cosmos 2154 Rocket 4.0 22:44:15 10° NNW 22:50:10 64° W 22:50:10 64° W
Gbstr 26 Del rocket 4.3 22:51:32 51° SE 22:51:32 51° SE 22:56:14 10° E
Cosmos 2151 Rocket 4.3 22:54:11 53° NE 22:54:11 53° NE 22:57:46 10° NNE
IDEFIX/ARIANE 42P 3.2 22:49:23 10° NNE 22:54:28 46° E 22:54:44 46° ESE
Cosmos 2237 4.1 22:49:54 10° NNW 22:55:39 82° NE 22:56:02 76° ESE
CZ-2D R/B 3.4 22:50:45 10° NNE 22:55:42 33° E 22:56:51 31° ESE
Cosmos 614 Rocket 4.0 22:57:08 71° NE 22:57:08 71° NE 23:01:43 10° NNE
Cosmos 2360 Rocket 3.1 22:55:24 10° NNW 23:00:52 48° NE 23:06:18 10° ESE
Cosmos 1892 Rocket 4.2 23:00:47 10° N 23:04:54 52° ENE 23:04:54 52° ENE
USA 281 3.1 23:08:02 35° SE 23:11:07 86° ENE 23:17:45 10° NNW
SL-8 Rocket 3.9 23:06:54 10° N 23:13:05 81° ENE 23:14:33 55° SSE
Cosmos 2322 Rocket 2.5 23:07:50 10° NNW 23:13:33 65° NE 23:18:44 12° SE
ATLAS CENTAUR R/B 3.0 23:10:31 10° NW 23:14:08 33° NNE 23:17:52 10° E
CENTAUR R/B 4.4 23:14:33 13° SE 23:17:11 16° ESE 23:21:05 10° ENE
Cosmos 2219 Rocket 3.5 23:12:45 10° NNW 23:18:06 40° NE 23:23:22 10° ESE
ALOS 4.1 23:14:29 10° NE 23:18:09 23° E 23:19:49 19° ESE
Cosmos 1455 Rocket 4.1 23:19:12 37° E 23:19:25 38° E 23:23:26 10° NNE
COSMOS 2455 4.5 23:17:48 20° SE 23:19:45 24° ESE 23:24:25 10° ENE
Cosmos 2082 Rocket 2.0 23:25:38 74° S 23:26:09 84° SE 23:31:50 10° NE
Cosmos 2098 Rocket 4.0 23:28:57 34° N 23:28:57 34° N 23:31:26 10° N
COSMOS 2406 3.2 23:28:35 64° SSE 23:29:18 72° ESE 23:35:00 10° NE
Geosat 4.4 23:27:05 10° NE 23:31:59 51° ESE 23:32:36 48° SE
Cosmos 1241 Rocket 4.4 23:32:39 60° SSW 23:33:54 81° SE 23:40:23 10° NE
Cosmos 540 Rocket 4.3 23:28:56 10° NNW 23:33:55 49° NE 23:38:53 10° SE
Cosmos 1269 Rocket 3.9 23:33:26 68° SSE 23:33:59 76° ESE 23:39:17 10° NNE
Meteor 1-28 Rocket 4.0 23:37:37 45° NNE 23:37:37 45° NNE 23:40:28 10° N
Cosmos 2333 Rocket 2.4 23:31:26 10° NNW 23:37:13 74° NE 23:42:56 10° SE
SL-16 R/B 2.1 23:31:41 10° NW 23:37:21 68° WSW 23:37:44 66° SW
Cosmos 2278 3.8 23:32:31 10° NW 23:37:35 56° W 23:37:35 56° W
CZ-2C R/B 3.2 23:36:03 10° NNE 23:41:50 88° ESE 23:43:13 55° SSW
Resurs 1-4 Rocket 2.1 23:38:19 10° NNE 23:43:36 73° ESE 23:44:45 54° S
Cosmos 2366 rocket 3.9 23:37:39 10° NNW 23:44:01 75° W 23:45:51 48° SSW
CZ-2C R/B 3.2 23:46:19 39° WNW 23:46:19 39° WNW 23:50:24 10° NNW
Cosmos 407 Rocket 4.5 23:50:20 29° SSE 23:52:19 41° ESE 23:57:17 10° NE
Cosmos 1763 Rocket 3.4 23:49:19 10° NNW 23:54:28 82° ENE 23:59:27 11° SSE
Cosmos 1980 Rocket 4.3 23:51:47 10° WNW 23:52:13 11° WNW 23:52:13 11° WNW
